KSLV-II R/B, 56750

Orbit data source: Space-Track

KSLV-II R/B, 56750 is space debris in SSO originally from a launch on Thu, 25 May 2023 UTC launched from the Naro Space Center, South Korea (NSC). Debris objects in space refer to the collection of defunct objects orbiting the Earth. Examples of debris include non-operational satellites, rocket bodies, and fragments generated from explosions, collisions, or faulty payload assembly.

Loading next visibility...
Identifier
56750, 2023-072H
Orbit
SSO
Country
Flag of UnknownUnknown / SKOR
Related business
Manufacturer
KARI
Mission
Spacecraft
Bus & Motor
Unknown
Mass
1,250 kg wet, 1,250 kg dry
Launch date (UTC)
2023-05-25 (3 years ago)
Launch vehicle
Unknown
Launch site
Naro Space Center, South Korea (NSC)
Object type
Payload
Rocket body
Debris
Shape & HBR
Cyl, 1.8 m
Radar Cross Section
10.006 m², Large (>1 m²)

Expand to show TLE details & history
Last TLE update: 16 hours ago

TLE from 16 hours ago
0 KSLV-II R/B
1 56750U 23072H   26034.50454571  .00008596  00000-0  27322-3 0  9990
2 56750  97.4995 239.3407 0027036  78.3514 282.0760 15.32515640149902
Epoch: 2026-02-03T12:06Z
TLE epoch observation values (Epoch: 2026-02-03T12:06:32.749Z)
Latitude
0.00001°
Longitude
-75.98028°
Altitude
467.589 km
Speed
7.635 km/s
True Right ascension
15h 57m 21s
True Declination
0° 00' 00"
Sunlit
Object was in daylight at epoch
Visualization orbit readout
Latitude
Unknown
Longitude
Unknown
Altitude
Unknown
Speed
Unknown
Apparent Right ascension
Unknown
Apparent Declination
Unknown
Sunlit
N/A
Visualization observer readout
Local Sidereal Time
05:39:49
Azimuth
Unknown
Elevation
Unknown
Doppler factor
Unknown
Orbital elements
Apogee altitude
483.765 km
Perigee altitude
446.761 km
Semi-major axis
6,843.4 km
Eccentricity
0.0027
Inclination
97.4995°
RAAN
239.3407°
Arg. of periapsis
78.3514°
True anomaly
281.77283°
Mean anomaly
282.076°
Eccentric anomaly
281.92444°
Mean motion
3.83385 °/min
Orbital period
93.9 mins
BSTAR
0.00027322
Loading maneuver chart data...
Computing Atmospheric mass density...
Loading historical data...
Loading historical data...
Loading historical data...
Loading historical data...
Loading historical data...
Loading historical data...
Loading historical data...

Documentation

Showing up to 5 results
|